This is the latest recevied weather packets stored in our database for station/object KD8DNS. If no packets are shown the sender has not sent any weather packets the latest 10 day(s).
| Time | Temp. | Humidity | Pressure | Rain* | Wind** | Luminosity | Snow |
|---|---|---|---|---|---|---|---|
| 1788473005 | 35° C | 51% | 1017.4 hPa | 0 mm | - | 65 W/m² | - |
| 1788472697 | 35° C | 51% | 1017.4 hPa | 0 mm | - | 92 W/m² | - |
| 1788472394 | 35° C | 50% | 1017.3 hPa | 0 mm | - | 60 W/m² | - |
| 1788472091 | 35° C | 51% | 1016.8 hPa | 0 mm | - | 61 W/m² | - |
| 1788471813 | 35° C | 50% | 1017 hPa | 0 mm | - | 56 W/m² | - |
| 1788471481 | 35° C | 50% | 1016.8 hPa | 0 mm | - | 59 W/m² | - |
| 1788471177 | 35° C | 48% | 1016.8 hPa | 0 mm | - | 60 W/m² | - |
| 1788470867 | 35° C | 49% | 1016.8 hPa | 0 mm | - | 65 W/m² | - |
| 1788470564 | 35° C | 48% | 1016.9 hPa | 0 mm | - | 63 W/m² | - |
| 1788470257 | 35.56° C | 49% | 1016.8 hPa | 0 mm | - | 65 W/m² | - |
| 1788469954 | 35.56° C | 50% | 1016.9 hPa | 0 mm | - | 66 W/m² | - |
| 1788469649 | 35° C | 51% | 1016.7 hPa | 0 mm | - | 84 W/m² | - |
| 1788469345 | 35.56° C | 50% | 1016.8 hPa | 0 mm | - | 75 W/m² | - |
| 1788469039 | 35° C | 48% | 1016.9 hPa | 0 mm | - | 80 W/m² | - |
| 1788468738 | 35° C | 50% | 1017.1 hPa | 0 mm | - | 85 W/m² | - |
| 1788468434 | 34.44° C | 51% | 1017.4 hPa | 0 mm | - | 118 W/m² | - |
| 1788468130 | 34.44° C | 53% | 1017.4 hPa | 0 mm | - | 105 W/m² | - |
| 1788467824 | 35° C | 52% | 1017.4 hPa | 0 mm | - | 89 W/m² | - |
| 1788467520 | 35° C | 52% | 1017.6 hPa | 0 mm | - | 236 W/m² | - |
| 1788467215 | 35.56° C | 51% | 1017.6 hPa | 0 mm | - | 126 W/m² | - |
| 1788466910 | 35.56° C | 51% | 1017.6 hPa | 0 mm | - | 439 W/m² | - |
| 1788466604 | 35.56° C | 50% | 1017.6 hPa | 0 mm | - | 442 W/m² | - |
| 1788466303 | 36.11° C | 50% | 1017.6 hPa | 0 mm | - | 470 W/m² | - |
| 1788465998 | 36.11° C | 50% | 1017.8 hPa | 0 mm | - | 457 W/m² | - |
| 1788465694 | 36.11° C | 50% | 1017.8 hPa | 0 mm | - | 465 W/m² | - |
* Rain latest hour (hover to see other rain measurements)
** Current wind speed in m/s (hover to see current wind gust speed)